Погода в Кабале

Погода в Кабале : погода сейчас, прогноз погоды и архив. Всё, что Вы хотите узнать о погоде в Кабале!

Поиск расширенной информации на нашем сайте:

Другие новости

Новости СМИ2

Главная страница сайта

Новости сайта

03.07.2017

Напоминаем, что на нашем специализированном сайте Метеоцентр.Азия вы можете получить высокодетализированные автоматические прогнозы погоды по пунктам России, СНГ и мира в авиационном формате (включающие направление и скорость ветра, видимость, явления погоды, количество и форму облачности, нижнюю и верхнюю границу облачности).


Погода в Кабале - сегодня

Время (UTC), дата Ветер
(°,м/с) 
Видим.   Явления Облачность Т
(°С)
Тd
(°С)
f(%) Тe
(°С)
Pmin
(гПа)
dP
(гПа)
Po
(мм)
O2
(г/м3)
Тmin Tmax R s Состояние
почвы
18 22.02.18 230 (ЮЗ) 4000 м    10/10 600 м 
[Sc]
+4 +2.8 92 +4  1017.4  702  278    +6       
21 22.02.18 160 (Ю) 4000 м    10/10 600 м 
[Sc]
+3.7 +2.2 90 +3  1018.3  0.7  703  279           
00 23.02.18 080 (В) 4000 м    10/10 600 м 
[Sc]
+3.5 +1.7 88 +3  1018.1  -0.2  703  279           
03 23.02.18 180 (Ю) 4000 м    10/10 600 м 
[Sc]
+3.4 +2.1 91 +3  1018.2  703  279           
06 23.02.18 250 (З) 10 км    10/10 600 м 
[Sc]
+4 +1.4 83 +4  1018.6  0.6  703  279  +3.2         
09 23.02.18 090 (В) 10 км    10/10 600 м 
[Sc]
+4.7 +2.7 87 +4  1018.6  0.2  703  278           
12 23.02.18 270 (З) 10 км    10/10 600 м 
[Sc]
+5.5 +2.8 83 +5  1017.5  -0.8  703  277           
15 23.02.18 200 (Ю) 10 км    10/10 600 м 
[Sc]
+4.1 +3.1 93 +4  1016.3  -1.2  702  278           
21 23.02.18 тихо ()   4000 м    10/10 600 м 
[Sc]
+3.5 +2.7 94 +4  1016.3  701  278           
00 24.02.18 320 (СЗ) 4000 м    10/10 600 м 
[Sc]
+3.1 +2.3 94 +3  1015.3  -1  701  279           
03 24.02.18 тихо ()   4000 м    10/10 600 м 
[Sc]
+2.7 +1.4 91 +3  1015.2  -0.3  700  279           
06 24.02.18 200 (Ю) 10 км    10/10 600 м 
[Sc]
+3 +1.2 88 +2  1016  0.9  701  279  +2.5         
09 24.02.18 090 (В) 10 км    6/6 600 м 
[Sc]
+6.9 +1.4 68 +7  1013  -1.7  700  275           
12 24.02.18 270 (З) 10 км    4/4 600 м 
[Sc]
+9 +2.3 63 +9  1011.2  -1.3  699  272           
15 24.02.18 180 (Ю) 10 км    4/4 600 м 
[Sc]
+6.7 +2.6 75 +7  1011.5  -0.1  699  274           
18 24.02.18 180 (Ю) 4000 м    10/10 600 м 
[Sc]
+4.7 +2.7 87 +4  1014  1.8  700  277    +9.5       
21 24.02.18 180 (Ю) 4000 м    10/10 600 м 
[Sc]
+4 +3 93 +4  1013.2  -0.8  699  277           
00 25.02.18 180 (Ю) 4000 м    8/8 600 м 
[Sc]
+3.1 +2.1 93 +3  1013.4  -0.2  699  278           
03 25.02.18 270 (З) 4000 м    10/10 600 м 
[Sc]
+3.5 +2.2 91 +3  1013.3  699  278           
06 25.02.18 180 (Ю) 10 км    10/10 600 м 
[Sc]
+3.9 +2.1 88 +3  1013.3  0.1  699  277  +2.9         
09 25.02.18 180 (Ю) 10 км    8/8 600 м 
[Sc]
+6.3 +1.6 72 +6  1011.5  -1  699  275           
12 25.02.18 180 (Ю) 10 км    10/10 600 м 
[Sc]
+9.7 +3.8 67 +10  1008.8  -1.6  697  270           
15 25.02.18 180 (Ю) 20000 м    4/4 1000 м 
[Sc]
+7.7 +4.5 80 +8  1008.6  -0.7  697  272           
21 25.02.18 360 (С) 20000 м    ясно 
+4.9 +2.7 86 +5  1009.5  -0.7  697  275           
00 26.02.18 360 (С) 20000 м    ясно 
+1.7 +0.1 89 +1  1010.2  -0.3  697  279           
Время (UTC), дата Ветер
(°,м/с) 
Видим.   Явления Облачность Т
(°С)
Тd
(°С)
f(%) Тe
(°С)
Pmin
(гПа)
dP
(гПа)
Po
(мм)
O2
(г/м3)
Тmin Tmax R s Состояние
почвы

Для получения пояснительной информации подведите курсор к названию столбца.

ПОГОДА в Кабале - архив

Всё, что Вы хотите узнать о погоде в Кабале - удобно и подробно!

Выберите нужную дату (начиная с 1 января 2015* года) и нажмите кнопку "Найти".
Будут отображены архивные сводки погоды по пункту Кабала, начиная с указанной даты.


Отображать данные в формате CSV (для использования в таблицах Excel)


Внимание! Наш архив погоды предназначен исключительно для личного некоммерческого использования в познавательных целях. Если Вам необходимы официальные справки о состоянии погоды (для производственных, юридических, коммерческих и т.п. целей), обращайтесь в органы Росгидромета.

*Примечание: данная дата относится к архиву по метеостанциям СССР (Россия, СНГ, Балтия).
Архив по метеостанциям Зарубежной Европы и Азии (кроме Китая) хранится 10 дней, по другим регионам земного шара (Китай, Африка, Америка, Австралия, Океания) - 1 день.

Кабала - район местоположения метеостанции


Название, широта, долгота, высота метеостанции:
Кабала 41°ш. 47.9°д. 682 м над ур. моря [Азербайджан]

Дополнительная информация

В oтличие oт бoльшинства пoгoдных сайтoв мы публикуем пoдрoбную метеoинфoрмацию в детальнoм прoфессиoнальнoм фoрмате.

Характеристики температуры и влажнoсти вoздуха измеряются на высoте 2 м в тени вдали oт зданий и деревьев.
Скoрoсть ветра измеряется на высoте 10 м (на урoвне рoста челoвека скoрoсть ветра ниже в 1.5-2 раза). Если метеoстанция нахoдится в гoрoде или в лесу, тo скoрoсть ветра занижена на 2-4 м/с пo сравнению с oткрытым местoм. Скoрoсть ветра над акватoриями крупных рек и oзёр, а также на вершинах хoлмoв на 2-5 м/с выше, чем в oбычных услoвиях.
Атмoсфернoе давление в разных тoчках местнoсти мoжет значительнo oтличаться oт давления на метеoстанции, в зависимoсти oт услoвий рельефа (при пoдъёме на 10 м давление пoнижается примернo на 1 мм рт.ст.).